User: anonymous   Login
Location: Unspecified
(0.0000°N, 0.0000°E)
Time: 21:41:23
(UTC+00:00)
Language:

Falconsat - Orbit

View from above orbital plane
View from above orbital plane
View from above satellite
View from above satellite

Ground track
Ground track

The orbit data is extracted from the following two-line orbital elements,

1 26064U 00004D   18265.88024518 -.00000032 +00000-0 +91511-5 0  9998
2 26064 100.1909 355.0913 0038455 099.1424 261.4110 14.36163811977260
Epoch (UTC): 22 September 2018 21:07:33
Eccentricity: 0.0038455
inclination: 100.1909°
perigee height: 744 km
apogee height: 798 km
right ascension of ascending node: 355.0913°
argument of perigee: 99.1424°
revolutions per day: 14.36163811
mean anomaly at epoch: 261.4110°
orbit number at epoch: 97726

The dashed part of the orbit path shows where the satellite is in the earth's shadow,  

DLR